Theta_e
324 327 327 328 328 328 329 330 329 330 329 329 329 329 329 328 327 326 325 327 328 328 326 325 326 326 325 324 325 328 328 329 330 331 331 330 330 329 330 327 328 328 328 329
326 327 326 326 327 328 330 330 329 329 329 329 330 329 328 326 326 326 326 327 328 329 327 326 326 327 326 324 323 328 329 329 332 334 333 332 331 330 331 330 329 329 329 330
325 327 326 326 327 329 330 330 329 331 330 330 330 329 328 327 327 326 325 326 328 330 328 327 327 327 327 324 324 327 329 332 333 333 333 334 333 332 332 329 329 330 329 329
324 326 326 326 328 329 330 328 328 329 330 331 328 330 328 327 326 325 326 327 328 330 329 328 328 328 327 324 325 327 330 332 332 332 331 333 334 331 332 332 327 329 331 331
323 325 326 327 328 328 329 328 328 328 329 330 328 329 328 327 326 325 326 326 330 330 329 328 328 328 326 323 326 327 330 330 333 332 330 332 331 332 333 332 326 328 330 330
322 324 325 327 327 328 328 327 327 328 329 330 328 329 328 327 325 325 326 328 330 330 329 328 327 327 324 323 325 327 329 329 332 332 330 331 332 330 329 331 328 329 330 332
322 323 326 326 328 328 328 328 330 331 332 331 328 328 328 326 325 325 326 328 332 330 329 328 328 327 324 324 324 327 328 327 329 330 329 329 330 330 330 331 328 328 330 330
324 325 326 328 329 328 327 328 328 331 332 331 329 329 328 326 325 326 329 333 333 330 328 328 328 326 323 324 323 325 326 326 328 328 329 328 331 333 330 331 330 329 330 329
325 326 325 327 327 328 328 328 327 329 328 329 330 329 328 325 324 327 331 332 332 330 328 328 328 326 323 324 324 325 325 326 326 328 329 328 330 331 330 329 328 329 331 331
326 327 326 326 327 327 327 327 328 328 332 333 330 329 328 326 326 330 333 333 331 329 328 328 328 326 322 324 325 325 325 324 325 326 326 326 329 331 332 331 329 325 326 328
324 328 328 327 329 328 326 326 328 329 329 331 332 330 329 327 326 328 333 333 331 329 328 328 328 326 323 323 325 326 326 323 325 325 326 325 327 329 329 330 330 331 330 326
325 328 330 328 328 328 327 326 328 330 331 329 331 331 328 327 327 328 332 333 330 329 328 328 328 326 323 323 325 326 326 322 322 324 325 324 326 328 329 330 331 331 331 330
327 329 332 331 329 328 328 326 327 330 331 331 331 330 328 328 327 329 330 332 331 329 328 328 328 326 322 324 324 325 326 323 320 320 324 324 324 327 329 329 329 332 332 332
329 330 331 332 332 328 328 326 326 328 332 330 330 329 329 329 328 328 331 332 332 330 328 328 329 327 322 324 323 324 325 324 319 319 320 324 323 325 327 328 328 329 331 332
331 334 328 328 327 327 327 326 326 327 328 330 330 329 329 328 329 328 331 332 332 331 329 329 329 327 323 323 323 323 325 324 319 319 319 322 324 324 326 328 328 326 327 330
332 333 328 327 326 326 328 327 326 325 326 327 329 329 328 327 327 328 329 333 332 332 329 329 329 328 325 323 323 323 324 323 320 320 319 320 322 322 323 327 328 327 326 325
327 330 332 329 325 325 328 327 327 326 325 326 328 328 328 327 327 327 329 331 332 332 331 329 329 329 324 323 323 323 324 323 321 321 321 319 320 321 323 324 326 326 326 326
332 333 329 330 327 329 325 325 325 326 326 326 327 327 328 328 327 327 327 330 332 332 332 330 330 329 325 323 323 324 324 324 322 321 322 319 317 320 322 322 324 325 327 326
329 334 328 331 331 326 325 324 325 325 326 327 328 327 327 326 327 327 328 328 332 332 332 331 329 328 326 324 323 324 324 324 322 322 322 321 317 318 320 323 324 327 327 328
327 329 335 330 330 327 326 324 324 325 328 326 326 326 327 326 326 327 329 329 331 332 332 333 330 329 328 325 323 324 324 324 323 322 322 321 319 318 319 322 325 327 328 328
325 330 332 328 332 326 325 325 325 328 326 330 326 326 327 328 327 328 328 329 330 332 332 332 331 330 331 327 325 325 324 324 323 322 322 322 320 319 319 321 324 326 325 324
323 328 327 328 326 327 326 326 328 327 329 328 327 327 328 328 328 328 329 330 332 332 332 333 332 330 331 328 326 325 325 324 323 322 322 322 321 319 321 322 323 324 323 323
325 324 326 326 327 329 327 328 328 328 329 329 329 329 329 329 329 328 329 332 332 333 333 332 333 331 330 330 327 327 326 324 323 322 322 322 322 320 321 323 323 322 322 321
321 323 326 328 326 327 327 327 329 328 328 328 330 330 331 331 330 330 331 333 333 333 334 332 333 332 332 331 329 328 326 324 323 323 322 322 323 321 321 323 323 321 320 320
321 322 323 324 324 325 325 327 327 328 329 331 332 332 331 331 331 332 332 332 332 334 333 332 332 333 332 332 330 328 328 325 324 325 324 324 324 322 321 322 321 320 319 319
317 320 322 324 323 324 323 324 324 324 327 329 330 330 330 331 331 332 332 332 332 332 332 333 332 332 332 332 331 330 328 327 326 326 326 324 324 323 321 321 321 319 320 318
Wind_Speed
24 18 26 33 28 24 23 18 17 11 9 13 13 17 20 15 15 17 15 12 12 13 13 17 15 12 8 5 4 3 4 6 9 11 11 8 7 7 4 7 9 10 8 7
21 27 28 28 27 26 23 21 16 15 13 9 13 19 20 19 18 16 14 10 11 13 14 15 16 14 10 6 3 2 2 4 7 8 7 6 6 5 8 6 8 5 8 6
31 27 28 27 27 25 23 21 17 18 12 9 14 23 20 7 10 10 9 9 9 13 15 15 15 15 11 7 5 3 0 2 5 6 4 5 3 2 5 10 11 6 3 4
28 28 27 30 27 25 22 19 18 14 13 13 14 14 15 17 7 10 12 13 10 12 15 15 14 15 12 9 7 5 2 2 3 8 6 6 5 4 4 6 9 10 6 4
31 26 28 27 29 26 20 18 17 14 15 18 19 11 14 10 10 7 5 4 9 13 16 16 15 16 13 10 9 6 4 2 2 5 9 9 9 8 3 5 9 12 8 5
31 28 24 27 27 20 20 17 17 11 11 15 19 14 15 10 3 3 5 4 8 12 15 16 18 16 14 11 10 8 5 3 0 4 6 8 8 8 6 7 7 9 9 7
28 33 27 22 20 22 23 14 11 12 13 14 17 12 9 13 4 3 5 6 9 11 15 16 16 15 15 13 12 9 7 5 1 3 5 8 9 8 8 7 10 9 11 12
23 27 30 23 25 23 22 19 13 15 14 14 11 7 3 5 5 4 3 4 7 13 15 16 16 15 16 14 12 9 8 6 4 3 5 8 12 11 10 9 7 11 10 14
24 28 26 26 23 25 19 20 20 22 19 13 6 8 9 7 8 8 2 2 9 15 16 16 15 16 15 15 13 10 8 7 5 4 4 6 9 13 11 9 8 10 10 11
16 19 25 28 20 26 23 18 19 15 19 17 13 11 4 11 10 8 7 7 13 15 16 15 15 16 15 15 14 11 9 8 6 5 5 6 7 8 8 7 9 9 14 13
30 18 23 25 25 26 21 21 17 15 14 13 11 8 8 6 5 2 8 11 15 16 16 16 15 17 16 16 15 13 10 9 8 7 6 6 7 9 8 8 8 8 9 13
32 15 17 29 24 26 26 26 22 11 18 12 12 3 11 7 5 7 4 12 16 16 16 16 15 18 18 17 16 14 12 11 10 9 8 8 7 8 9 10 10 9 10 10
27 18 17 22 20 24 27 25 23 19 14 15 12 13 13 12 7 5 6 11 15 17 17 16 15 15 18 19 17 16 13 12 11 12 10 9 9 9 10 10 10 10 11 10
23 21 26 21 26 22 25 25 25 23 17 16 16 16 13 11 11 11 8 8 14 17 18 16 15 15 19 20 18 17 15 13 12 13 12 11 11 9 11 10 12 11 12 14
26 26 26 26 21 25 23 27 27 27 24 21 18 18 15 11 13 11 12 10 13 17 20 18 16 15 19 20 19 18 16 15 14 13 14 12 12 12 11 11 11 12 11 14
23 24 24 26 26 24 27 26 26 27 25 23 21 17 12 8 9 13 11 13 12 16 20 20 18 17 18 22 21 20 18 18 16 14 15 15 14 14 12 12 11 11 12 12
24 20 23 23 25 26 23 27 28 25 22 22 21 20 18 12 13 12 11 12 12 15 19 21 20 17 22 24 23 22 20 20 18 16 16 17 17 16 15 14 13 12 12 10
22 23 18 20 23 27 21 22 22 24 22 21 19 19 18 18 15 13 14 14 13 14 18 20 18 22 24 25 25 23 22 22 21 18 17 17 18 18 17 16 15 14 13 12
20 19 15 15 19 17 25 17 23 22 22 21 21 20 19 15 15 17 15 14 16 14 15 18 27 27 26 27 27 26 24 23 22 21 19 18 18 19 19 18 17 15 15 14
13 13 14 14 18 24 19 23 14 19 21 22 22 19 17 16 14 11 15 14 13 14 14 17 26 28 27 27 28 27 26 25 24 23 21 19 19 20 21 19 18 16 15 14
17 17 19 15 14 16 17 16 14 20 15 20 22 21 19 16 14 11 11 17 15 14 16 20 25 27 28 29 30 29 28 26 25 23 22 21 19 19 20 20 19 17 16 14
20 19 16 17 16 17 20 13 24 8 1 15 15 17 17 19 17 14 10 5 14 15 16 20 22 26 29 31 30 29 27 28 26 24 23 22 20 20 20 21 20 19 17 15
21 19 15 17 14 6 11 15 10 9 8 7 7 11 11 15 17 16 14 10 11 15 15 21 22 24 28 31 32 30 28 29 27 25 24 24 23 20 20 22 21 20 19 17
18 12 17 14 17 12 7 11 9 11 11 11 10 7 7 13 14 12 14 11 12 16 16 19 23 23 26 31 33 30 29 29 29 27 25 24 25 23 22 21 21 21 21 20
11 17 15 18 14 17 13 9 10 9 9 2 3 9 9 8 10 14 14 12 13 14 18 18 21 23 27 29 32 32 30 31 29 27 26 25 26 26 23 23 24 23 22 22
15 13 11 11 13 7 6 12 11 10 9 11 10 12 8 10 12 12 12 12 13 15 20 18 19 21 26 28 30 32 33 33 29 27 28 29 28 28 25 24 23 24 21 25
Wind_Direction
205 210 209 212 219 229 246 257 253 243 247 250 276 277 285 283 271 271 253 244 232 210 202 191 194 191 191 212 237 265 318 323 330 337 346 1 349 339 358 305 287 260 249 244
205 221 215 217 222 231 241 252 255 262 259 268 289 283 290 282 276 268 249 242 220 199 194 180 187 191 192 197 209 219 308 340 342 357 351 357 338 12 16 7 11 30 196 199
216 215 220 212 224 222 228 242 244 260 271 243 271 268 258 257 271 245 235 255 215 195 191 182 185 190 188 193 185 168 100 22 5 348 25 6 329 334 12 36 32 47 134 178
219 223 210 225 218 223 228 227 247 269 275 266 274 284 294 273 264 256 234 201 208 181 183 181 184 186 188 183 172 164 141 48 38 2 4 1 18 17 39 42 29 41 80 120
220 219 217 213 223 219 233 235 239 229 252 270 264 264 273 267 221 251 249 259 154 170 179 179 183 180 180 174 171 174 153 101 32 17 9 25 32 24 45 67 29 49 63 64
229 213 223 219 216 218 225 227 254 265 259 257 257 253 266 271 128 303 301 182 159 171 172 172 176 174 172 178 170 174 160 127 283 13 30 21 45 51 41 48 52 62 53 56
212 228 211 224 213 213 220 210 228 230 233 248 247 237 284 298 311 327 329 320 146 163 169 170 173 172 171 176 172 173 168 144 145 57 43 23 14 66 65 81 79 74 52 38
209 213 214 203 211 209 205 211 224 219 234 247 141 227 263 217 61 264 289 347 138 168 166 170 173 172 175 175 177 183 170 162 161 85 57 41 34 64 75 96 78 58 58 53
202 217 203 203 201 220 189 214 225 253 284 289 217 212 198 192 212 199 167 175 155 165 164 171 170 173 176 174 177 176 166 161 166 128 95 69 64 78 89 85 71 71 61 70
211 211 218 198 205 218 220 200 217 229 246 261 245 235 244 166 211 117 151 166 159 164 166 172 171 174 177 177 174 179 175 171 169 146 128 105 88 98 95 77 59 68 68 73
230 212 201 187 197 206 203 224 204 244 224 237 248 261 119 152 159 323 147 159 170 171 171 173 173 173 179 177 176 181 185 167 170 157 138 130 106 100 94 80 72 79 83 77
214 215 226 200 200 209 214 210 207 216 222 249 274 245 112 161 205 183 196 155 173 179 175 174 174 174 178 180 174 178 183 176 176 165 151 138 127 114 101 94 89 91 98 98
205 212 218 199 202 202 222 210 217 219 243 235 219 238 183 167 197 194 236 153 173 181 177 175 177 178 181 181 181 176 180 181 175 170 157 147 142 126 115 103 99 113 107 104
200 211 211 213 199 192 208 222 205 217 218 230 242 260 155 175 197 213 186 166 181 185 178 179 183 181 184 182 185 180 180 176 177 174 165 156 149 142 133 128 116 116 119 122
191 218 208 227 204 200 205 214 216 213 220 223 228 233 246 215 191 215 180 181 181 189 182 186 186 185 186 182 186 186 179 173 179 177 164 167 158 155 147 142 135 123 123 121
188 214 215 217 228 203 204 211 221 223 222 223 233 243 225 197 242 194 203 168 195 192 192 191 188 187 187 183 187 183 181 174 178 179 168 171 169 165 157 150 145 140 132 129
186 209 212 220 214 227 223 207 212 221 224 225 225 229 245 233 209 230 203 178 202 196 198 195 191 189 187 185 187 181 182 177 180 182 171 171 175 171 167 162 155 148 143 143
194 202 200 212 221 217 226 220 218 219 222 220 229 236 230 233 233 207 229 197 200 202 196 197 190 189 187 185 185 182 182 182 183 187 178 174 176 177 173 171 163 157 154 152
207 195 208 213 206 216 220 221 224 214 224 216 219 221 235 243 222 229 212 216 185 208 196 197 193 189 184 185 184 182 186 185 187 189 185 181 178 177 179 177 169 168 167 165
212 213 221 205 212 209 210 201 213 223 226 215 215 224 227 222 227 222 197 214 201 193 200 191 190 184 184 187 183 185 188 188 191 191 188 185 181 179 181 181 176 176 176 175
198 207 212 220 212 224 208 182 177 215 218 207 215 222 221 223 232 236 208 209 208 190 201 187 186 185 183 186 183 189 190 193 193 191 187 184 182 180 182 178 179 181 185 182
199 199 206 211 201 220 197 202 181 194 165 176 192 214 213 223 226 234 225 196 181 192 191 178 182 186 183 189 188 193 192 193 193 191 185 183 181 183 179 180 182 185 189 186
206 208 204 213 207 207 196 192 162 186 192 193 182 199 207 212 219 219 214 202 208 192 182 186 182 184 185 192 194 197 193 191 193 192 187 181 180 188 179 182 182 185 188 191
247 257 215 207 207 147 162 184 163 211 235 214 189 221 204 223 218 196 200 197 194 185 183 187 184 184 189 196 199 202 193 192 191 192 187 183 181 187 181 186 188 191 188 195
239 243 262 213 220 197 178 167 197 204 220 247 219 259 210 195 201 199 181 201 201 191 182 188 191 190 192 196 202 201 197 193 193 189 186 186 187 186 183 192 189 196 193 195
241 240 255 224 194 231 185 200 230 254 238 235 244 248 232 205 196 190 190 195 200 197 191 191 194 202 197 195 199 201 200 194 192 189 188 189 190 185 193 196 195 201 200 201